Location: LDNL
(36.4545°S, 141.6685°E)
Time: 02:49:38
(UTC+10:00)

Courier 1B Rocket - Pass Details

Date: 31 May 2024
Orbit: 920 x 1201 km, 28.3° (Epoch: 14 June)

Event Time Altitude Azimuth Distance (km) Brightness Sun altitude
Exits shadow 06:36:50 - 290° (WNW) 3,558 7.5 -11.7°
Reaches altitude 10° 06:39:37 10° 307° (NW) 3,104 7.3 -11.2°
Maximum altitude 06:42:34 12° 330° (NNW) 2,929 7.4 -10.6°
Drops below altitude 10° 06:45:32 10° 353° (N) 3,125 7.8 -10.1°
Sets 06:50:31 0° 20° (NNE) 4,084 8.9 -9.1°
